Location: ???????
(55.4362°N, 38.1183°E)
Time: 02:06:39
(UTC+00:00)

METEOR M2 - Pass Details

Date: 07 December 2021
Orbit: 818 x 827 km, 98.4° (Epoch: 28 January)

Event Time Altitude Azimuth Distance (km) Brightness Sun altitude
Rises 03:29:36 0° 24° (NNE) 3,370 ? -17.0°
Reaches altitude 10° 03:32:49 10° 44° (NE) 2,430 ? -16.6°
Maximum altitude 03:36:19 17° 85° (E) 1,958 ? -16.1°
Drops below altitude 10° 03:39:47 10° 126° (SE) 2,416 ? -15.6°
Sets 03:42:57 0° 146° (SE) 3,342 ? -15.2°
